Location: Marquette
(46.5440°N, 87.3950°W)
Time: 05:57:00
(UTC-04:00)

Daily predictions for brighter satellites

Satellite Brightness Start Highest point End
(mag) Time Altitude Azimuth Time Altitude Azimuth Time Altitude Azimuth
Cosmos 1346 3.4 00:04:05 43° SE 00:04:33 47° E 00:07:30 10° NNE
Spot 2 4.4 00:02:52 10° NNE 00:08:04 85° ESE 00:11:31 21° SSW
Nadezhda 1 Rocket 3.9 00:02:22 10° N 00:08:29 86° W 00:12:27 23° S
ALOS 2 4.4 00:06:36 14° ESE 00:08:56 21° ENE 00:12:14 10° NNE
SL-16 R/B 3.2 00:04:26 10° NNW 00:09:44 37° NE 00:13:41 17° ESE
Lacrosse 4 Rocket 3.2 00:07:44 10° NNW 00:11:31 27° NE 00:14:35 14° E
Cosmos 1869 3.3 00:07:44 10° N 00:11:48 70° E 00:13:24 35° SSE
NOSS 3-1 (A) 3.4 00:08:38 10° SSW 00:14:33 78° SE 00:21:13 10° NE
COSMOS 2428 3.7 00:09:54 10° NW 00:15:05 37° WSW 00:18:35 19° SSW
Cosmos 1455 2.2 00:16:44 10° NNW 00:20:31 74° W 00:21:56 37° S
Cosmos 1745 Rocket 4.2 00:17:11 16° SSW 00:22:14 71° W 00:28:26 10° N
Cosmos 2297 Rocket 2.6 00:25:44 29° SSE 00:28:01 43° ESE 00:33:21 10° NE
H-2A R/B 3.9 00:26:37 10° NE 00:29:55 22° E 00:30:32 22° ESE
Cosmos 1709 Rocket 4.0 00:27:28 28° SSE 00:30:47 64° E 00:36:49 10° NNE
Cosmos 2221 Rocket 4.0 00:27:08 10° N 00:31:38 54° ENE 00:33:22 33° SE
Cosmos 192 4.3 00:27:05 10° NNW 00:32:02 89° NE 00:34:11 34° SSE
COS B Rocket 3.5 00:30:48 10° N 00:34:19 53° E 00:35:12 42° SE
Cosmos 1470 Rocket 4.0 00:31:56 23° SSW 00:34:26 55° WNW 00:38:42 10° N
Cosmos 1703 Rocket 3.7 00:31:09 10° N 00:35:29 61° ENE 00:37:00 37° SE
Cosmos 2219 Rocket 2.7 00:30:18 10° NW 00:35:40 49° WSW 00:38:24 27° SSW
Cosmos 1933 Rocket 4.1 00:33:20 23° SSW 00:35:58 57° WNW 00:40:23 10° N
ATLAS 2AS CENTAUR R/B 3.2 00:32:38 23° S 00:37:17 53° ESE 00:45:02 10° NE
GEOS 3 Rocket 3.6 00:35:40 28° SE 00:38:29 86° NE 00:43:43 10° NW
COSMOS 2455 3.1 00:32:28 10° NNW 00:38:30 65° NE 00:42:07 25° SE
Okean 1-7 3.7 00:36:47 10° N 00:40:53 43° ENE 00:42:15 32° ESE
Cosmos 1937 Rocket 3.9 00:36:51 15° SW 00:41:10 62° WNW 00:46:21 10° NNE
H-2A R/B 3.7 00:41:19 14° SW 00:44:49 27° W 00:49:24 10° NW
Cosmos 2181 Rocket 4.0 00:41:05 10° N 00:47:28 86° E 00:50:50 31° S
Cosmos 1980 4.1 00:43:52 10° NW 00:49:21 53° WSW 00:51:50 31° S
Cosmos 1269 Rocket 4.0 00:48:39 10° NNW 00:54:00 90° NE 00:56:14 36° SSE
Cosmos 389 Rocket 3.0 00:51:29 10° N 00:55:00 48° ENE 00:55:35 43° ESE
Cosmos 990 Rocket 4.3 00:53:27 20° SW 00:56:57 62° WNW 01:02:05 10° NNE
ATLAS 3B R/B 2.7 00:51:09 10° NW 00:58:18 86° NE 01:02:13 27° SE
Cosmos 1933 3.4 00:55:08 10° NNW 00:59:10 68° W 01:00:15 45° SSW
Meteor 2-3 Rocket 4.4 00:57:41 30° SE 00:59:52 42° E 01:05:14 10° NNE
USA 238 DEB 4.4 00:53:03 10° NW 00:59:56 53° NE 01:06:14 12° ESE
USA 238 4.4 00:53:09 10° NW 01:00:02 52° NE 01:06:22 12° ESE
Helios 1A Rocket 4.3 00:57:59 10° NE 01:01:29 25° E 01:01:59 25° ESE
Cosmos 2184 Rocket 4.4 00:59:55 30° SSE 01:02:38 49° E 01:08:34 10° NNE
Cosmos 2237 Rocket 2.8 00:57:21 10° NW 01:02:46 46° WSW 01:05:04 30° SSW
NOSS 3-1 (C) 4.4 00:57:21 10° WSW 01:03:11 49° NW 01:09:46 10° NE
Cosmos 2082 3.9 01:03:38 21° SW 01:07:33 73° WNW 01:13:18 10° NNE
FALCON 9 R/B 3.4 00:54:49 10° W 01:08:02 33° SSW 01:09:35 30° S
Cosmos 1892 4.1 01:11:42 25° E 01:12:02 25° E 01:15:12 10° NNE
CZ-4B R/B 1.4 01:17:43 68° SE 01:18:07 81° ENE 01:21:35 10° N
Cosmos 1782 4.2 01:19:20 10° NNE 01:22:49 28° ENE 01:23:58 24° ESE
Cosmos 1048 Rocket 4.2 01:19:32 10° NNW 01:24:50 63° WSW 01:26:43 39° S
Cosmos 1125 Rocket 3.5 01:22:54 33° SSW 01:25:23 80° WNW 01:30:44 10° NNE
Cosmos 1689 Rocket 2.2 01:26:12 81° SW 01:26:17 84° WSW 01:29:37 10° NNW
In-Cosmos 22 Rocket 4.2 01:28:10 38° S 01:30:28 81° E 01:36:16 10° NNE
Aureole 2 Rocket 2.6 01:28:04 10° NNW 01:31:04 54° ENE 01:31:09 53° ENE
USA 234 4.0 01:25:44 10° E 01:32:01 53° NNE 01:38:20 10° NW
Cosmos 1340 Rocket 3.4 01:32:25 38° ESE 01:32:51 40° E 01:36:33 10° NNE
NOSS 2-3 (C) 4.1 01:37:41 42° S 01:39:06 57° ESE 01:44:46 10° NE
SeaSat 1 3.7 01:38:15 24° SW 01:39:22 26° WSW 01:43:28 10° NW
Cosmos 44 Rocket 3.8 01:39:15 41° SSE 01:40:25 49° ESE 01:45:28 10° NE
Cosmos 1825 4.5 01:42:13 13° E 01:42:57 14° E 01:45:00 10° NE
Cosmos 1869 Rocket 4.5 01:41:46 29° SW 01:43:28 42° WNW 01:47:45 10° N
Cosmos 2227 Rocket 3.4 01:39:32 12° WSW 01:44:28 39° NW 01:49:47 10° NNE
CZ-4C R/B 4.2 01:44:21 29° W 01:44:29 29° W 01:47:38 10° NNW
ALOS 2 3.2 01:44:00 38° SW 01:44:59 45° W 01:49:13 10° NNW
Cosmos 1733 Rocket 3.2 01:46:04 47° SSE 01:47:06 61° E 01:51:31 10° NNE
Cosmos 2333 Rocket 4.0 01:43:31 10° WNW 01:47:18 18° W 01:49:11 16° WSW
Lacrosse 4 Rocket 2.0 01:46:13 10° NW 01:50:24 42° WSW 01:50:55 40° SW
Coronas F rocket 2.7 01:53:28 34° NE 01:53:28 34° NE 01:55:25 10° NNE
Cosmos 2263 Rocket 4.1 01:51:58 14° ESE 01:53:48 16° E 01:57:07 10° ENE
SL-16 R/B 2.9 01:48:37 10° NW 01:53:52 39° WSW 01:55:32 32° SW
Meteor 1-27 Rocket 4.4 01:48:33 10° N 01:54:18 50° ENE 01:57:22 26° SE
BREEZE-M DEB (TANK) 2.4 01:49:04 10° WNW 01:56:35 72° SSW 01:57:18 52° SE
Cosmos 2227 4.3 01:55:01 39° S 01:56:57 60° ESE 02:02:32 10° NNE
Cosmos 1378 Rocket 4.5 01:54:16 10° N 01:58:25 40° ENE 02:00:01 29° ESE
NOSS 2-3 (D) 3.9 01:58:18 40° SSW 02:00:11 79° SE 02:06:02 10° NE
Landsat 5 4.3 02:00:18 36° SW 02:01:15 41° W 02:05:33 10° NNW
ASTEX 1 3.8 01:57:57 10° N 02:02:43 54° W 02:04:30 35° SW
Cosmos 1356 Rocket 3.4 02:03:04 54° SE 02:03:43 64° E 02:07:45 10° NNE
Cosmos 372 Rocket 4.3 02:02:10 32° SW 02:04:33 63° WNW 02:09:47 10° NNE
ERBS 3.2 02:03:49 31° W 02:05:09 49° NW 02:08:33 10° NE
H-2A R/B 3.6 02:01:44 10° N 02:05:35 37° WNW 02:07:11 27° WSW
Nadezhda 3 Rocket 3.9 02:00:09 10° N 02:06:23 87° E 02:09:17 35° S
Cosmos 158 Rocket 4.3 02:01:13 10° NNW 02:06:23 52° WSW 02:07:53 39° SSW
Cosmos 1862 4.4 02:06:05 29° ESE 02:06:53 32° E 02:10:29 10° NNE
Cosmos 1610 Rocket 4.5 02:06:43 34° SSW 02:09:31 75° W 02:15:41 10° N
Cosmos 2074 Rocket 4.5 02:06:47 28° SW 02:10:02 53° WNW 02:16:13 10° N
Cosmos 1238 Rocket 3.1 02:07:35 10° N 02:11:58 61° ENE 02:12:49 47° SE
Cosmos 2297 Rocket 3.5 02:07:31 12° WSW 02:12:10 35° NW 02:17:20 10° NNE
CZ-2C R/B 3.3 02:11:35 33° SSE 02:14:22 80° ENE 02:20:02 10° NNW
Meteor 2-6 Rocket 4.3 02:12:18 10° NNW 02:18:07 80° W 02:20:38 36° S
CZ-4C R/B 3.0 02:11:17 10° NW 02:18:14 75° NE 02:25:57 10° SE
Cosmos 1943 3.5 02:14:09 10° NNW 02:19:50 63° ENE 02:23:35 21° SE
Cosmos 1782 Rocket 4.5 02:19:57 30° SE 02:21:15 38° E 02:25:19 10° NNE
CZ-2C R/B 2.5 02:16:19 10° NNE 02:21:37 84° WNW 02:23:38 39° SSW
COSMOS 2455 4.1 02:19:11 10° NW 02:23:56 25° WSW 02:25:14 23° SW
Cosmos 2251 Rocket 3.9 02:19:37 10° NNW 02:24:45 48° WSW 02:26:18 37° SSW
Meteor 2-10 Rocket 4.2 02:21:39 10° NNW 02:26:55 46° W 02:28:58 32° SW
Cosmos 1606 2.6 02:23:31 10° N 02:27:22 87° E 02:28:05 58° SSE
Cosmos 1603 3.9 02:21:55 10° NW 02:27:26 54° WSW 02:29:24 37° SSW
ATLAS 2AS CENTAUR R/B 3.8 02:20:58 10° WSW 02:28:27 50° NW 02:36:23 10° NE
Cosmos 1674 Rocket 4.1 02:28:41 10° NNW 02:32:54 45° W 02:33:54 38° SW
Cosmos 2154 Rocket 4.1 02:32:33 32° SSW 02:35:36 68° W 02:41:54 10° N
Helios 1A Rocket 4.2 02:33:03 10° N 02:36:46 32° WNW 02:38:19 24° WSW
Cosmos 1867 4.3 02:31:41 10° NNW 02:37:05 54° NE 02:42:26 10° SE
MOS 1-B Rocket 4.5 02:38:15 30° SW 02:40:19 41° W 02:45:37 10° NNW
Cosmos 1975 Rocket 3.1 02:37:13 10° N 02:41:39 75° E 02:43:12 39° SSE
BREEZE-M DEB (TANK) 3.9 02:27:34 10° WSW 02:45:02 76° SSE 02:49:26 10° ENE
Cosmos 1242 Rocket 4.3 02:42:13 10° NNE 02:45:12 25° ENE 02:47:00 17° ESE
Cosmos 1607 3.9 02:39:24 10° NW 02:45:28 62° WSW 02:48:30 30° S
Cosmos 1892 4.3 02:46:48 22° W 02:47:47 24° WNW 02:50:57 10° NNW
ATLAS 3B R/B 3.9 02:43:11 10° WNW 02:48:04 21° WSW 02:49:27 20° WSW
Cosmos 1908 Rocket 3.7 02:49:24 41° SW 02:50:42 63° W 02:55:01 10° N
USA 238 DEB 4.2 02:44:17 10° NW 02:50:50 43° WSW 02:53:38 30° SSW
USA 238 4.2 02:44:22 10° NW 02:50:56 43° WSW 02:53:46 30° SSW
Cosmos 921 Rocket 3.1 02:51:16 42° SW 02:52:31 65° WNW 02:56:43 10° NNE
Cosmos 1295 Rocket 4.5 02:50:11 32° S 02:53:23 85° W 02:59:46 10° N
Cosmos 44 3.5 02:53:21 34° SSW 02:55:46 87° SE 03:01:17 10° NE
Cosmos 1782 4.2 02:55:53 10° NW 02:59:06 24° W 02:59:38 23° WSW
Cosmos 2084 Rocket 3.5 03:01:38 34° WSW 03:03:01 59° NW 03:06:49 10° NE
Cosmos 2341 Rocket 4.5 03:01:00 27° SW 03:04:23 52° WNW 03:10:37 10° N
BREEZE-M TANK 1.9 03:03:55 10° W 03:08:32 64° SSW 03:11:01 10° ESE
Iridium 4 Rocket 3.8 03:05:09 10° N 03:09:36 55° E 03:12:32 23° SSE
Cosmos 2151 Rocket 4.3 03:07:47 26° SSE 03:09:54 46° E 03:14:11 10° NNE
SL-08 R/B 4.5 03:07:43 29° S 03:11:09 90° ENE 03:17:30 10° N
Cosmos 1184 Rocket 3.1 03:13:16 43° SSE 03:14:06 59° E 03:17:26 10° NNE
Abrixas rocket 4.3 03:15:16 16° SE 03:15:16 16° SE 03:16:49 10° E
USA 234 3.2 03:08:28 10° SE 03:14:57 66° SW 03:21:28 10° NW
RESURS DK-1 3.3 03:14:33 28° SSE 03:16:01 37° ESE 03:19:53 10° NE
ERS-2 3.7 03:14:29 10° NE 03:17:46 29° E 03:19:28 20° SE
Cosmos 1825 2.8 03:17:09 35° WSW 03:18:11 44° WNW 03:21:52 10° N
BREEZE-M DEB (TANK) 3.6 03:20:33 10° W 03:23:51 65° N 03:34:58 10° E
NOSS 3-2 (C) 3.9 03:17:24 10° NW 03:24:48 69° WSW 03:32:45 10° SSE
Cosmos 1408 3.5 03:24:17 30° WSW 03:25:22 37° WNW 03:28:55 10° N
CENTAUR R/B 3.9 03:19:15 10° NW 03:26:41 52° NE 03:34:40 10° ESE
SL-8 Rocket 4.3 03:24:55 26° SW 03:28:31 57° WNW 03:34:46 10° N
CZ-2D R/B 4.4 03:25:07 10° NE 03:28:34 17° E 03:32:01 10° SE
Cosmos 2218 Rocket 4.2 03:28:45 26° SSW 03:32:24 63° WNW 03:38:43 10° N
Cosmos 1339 Rocket 4.4 03:27:35 10° N 03:33:42 81° W 03:37:57 21° S
GP-B 4.0 03:29:32 10° NNE 03:33:49 44° E 03:37:07 16° SSE
Cosmos 1844 Rocket 4.4 03:31:31 10° SSE 03:35:47 24° ESE 03:40:12 10° NE
Cosmos 2263 Rocket 2.2 03:33:39 26° SSW 03:36:58 84° WNW 03:42:42 10° NNE
COSMOS 2406 3.5 03:33:12 10° NNW 03:38:59 70° ENE 03:44:44 10° SE
Cosmos 1190 Rocket 4.0 03:37:04 10° NNW 03:42:20 86° ENE 03:47:22 11° SSE
SL-08 R/B 3.3 03:41:41 19° S 03:45:13 81° WSW 03:50:10 10° NNW
Meteor 1-14 Rocket 4.4 03:42:47 24° SSW 03:46:33 73° WNW 03:52:28 10° N
NOSS 3-4 (A) 3.6 03:44:56 21° SW 03:49:25 80° NW 03:56:07 10° NE
IRS-1C 4.5 03:44:08 10° NNE 03:49:26 61° ESE 03:53:23 18° S
NOSS 3-4 (C) 3.6 03:45:02 21° SW 03:49:31 81° NW 03:56:12 10° NE
NOSS 3-2 (A) 4.3 03:42:34 10° NW 03:49:34 44° WSW 03:56:22 13° S
Okean 2 Rocket 4.2 03:47:32 21° WSW 03:49:41 32° WNW 03:53:46 10° N
Cosmos 2366 rocket 4.3 03:46:32 23° SW 03:50:19 53° WNW 03:56:23 10° N
Cosmos 1371 Rocket 4.1 03:47:23 24° SSW 03:50:39 79° WNW 03:56:03 10° NNE
Cosmos 2056 Rocket 3.5 03:48:43 23° SSW 03:52:03 82° ESE 03:57:19 10° NNE
Cosmos 2278 Rocket 4.5 03:49:02 10° SE 03:52:23 16° E 03:55:45 10° ENE
Tiangong 1 3.0 03:59:17 16° SSE 03:59:17 16° SSE 04:00:10 10° SE
ATLAS 5 CENTAUR R/B 4.1 03:54:26 10° NNW 03:59:42 34° NE 04:05:20 10° ESE
Cosmos 407 Rocket 3.4 03:54:57 10° NNW 04:00:08 84° WSW 04:05:19 10° SSE
AQUA 3.8 03:58:01 10° NNE 04:02:48 85° WNW 04:06:04 20° SSW
IRS-P3 4.3 03:59:20 10° N 04:04:37 62° WNW 04:08:19 20° SSW
Cosmos 676 Rocket 4.0 04:00:20 10° NNW 04:05:34 83° ENE 04:10:45 10° SSE
CZ-4C R/B 3.7 04:00:26 10° WNW 04:06:29 30° WSW 04:11:13 16° SSW
SL-27 R/B 2.4 04:06:35 10° NNW 04:10:15 85° WSW 04:13:49 11° SSE
Meteor 1-18 Rocket 4.5 04:07:03 10° NNW 04:12:30 52° W 04:16:57 16° SSW
SAR-Lupe-3 4.4 04:09:51 16° S 04:12:35 77° WSW 04:16:10 10° NNW
IRS-1D 4.3 04:11:01 10° NNE 04:15:59 48° E 04:20:49 10° S
Cosmos 724 4.3 04:10:14 10° NW 04:16:21 79° WSW 04:22:32 10° SSE
USA 161 1.3 04:16:08 19° S 04:18:00 82° WSW 04:20:55 10° NNW
Gbstr 26 Del rocket 4.4 04:16:42 14° S 04:18:44 20° SE 04:21:35 10° E
Cosmos 1242 Rocket 4.0 04:17:29 10° NW 04:20:08 20° W 04:21:11 18° WSW
Cosmos 1867 4.5 04:15:46 10° NW 04:20:25 29° WSW 04:23:54 15° SSW
Resurs 1-4 Rocket 3.0 04:15:28 10° NNE 04:20:34 44° E 04:25:37 10° S
Cosmos 909 Rocket 4.3 04:16:04 17° SW 04:21:13 80° NW 04:28:53 10° NE
Cosmos 1300 Rocket 3.6 04:23:44 17° SSW 04:26:58 66° W 04:31:19 10° N
Cosmos 1954 Rocket 3.9 04:29:06 10° NNW 04:34:16 73° WSW 04:39:25 10° SSE
BREEZE-M DEB (TANK) 4.1 04:20:19 10° W 04:36:19 71° N 04:40:16 10° E
Cosmos 1892 Rocket 4.3 04:32:52 10° N 04:37:10 53° ENE 04:41:24 10° SSE
Meteor 1-11 Rocket 4.0 04:35:24 10° S 04:41:19 82° E 04:47:20 10° NNE
Cosmos 1633 3.5 04:37:54 10° SSE 04:41:22 46° E 04:44:52 10° NNE
EO 1 Del DPAF 3.2 04:37:39 10° S 04:41:33 78° WSW 04:45:28 10° NNW
Meteor 1-13 Rocket 4.3 04:38:51 10° NNW 04:44:26 63° W 04:50:06 10° S
Okean 1 4.3 04:41:55 10° NNW 04:45:25 30° W 04:48:22 13° SSW
Cosmos 1934 Rocket 4.0 04:39:42 10° SSW 04:45:58 75° W 04:52:09 10° N
SME Rocket 2.8 04:42:22 10° SSE 04:46:06 86° WSW 04:50:17 10° NNW
Cosmos 1812 4.0 04:44:03 10° NW 04:47:14 24° W 04:49:49 13° SW
ADEOS 4.0 04:42:26 10° N 04:47:30 52° WNW 04:52:16 11° SW
Okean 1-7 Rocket 4.3 04:44:25 10° NNW 04:48:40 39° W 04:52:54 10° SSW
Abrixas rocket 2.2 04:48:13 12° WSW 04:51:13 72° SSE 04:54:34 10° ENE
ERS-2 3.7 04:48:29 10° NNW 04:51:28 23° WNW 04:54:19 11° WSW
USA 129 3.5 04:50:38 10° SE 04:52:37 33° ENE 04:54:34 10° N
Cosmos 1356 4.5 04:49:47 10° S 04:53:11 46° E 04:56:37 10° NNE
SL-16 R/B 2.6 04:47:14 10° S 04:53:26 65° WSW 04:59:39 10° NNW
ARIANE 5 R/B 2.5 04:48:27 10° N 04:53:26 73° WNW 04:58:25 10° SSW
RESURS DK-1 3.9 04:50:41 10° WSW 04:54:11 25° NW 04:57:43 10° N
Cosmos 1400 Rocket 3.5 04:50:44 10° S 04:54:30 52° E 04:58:21 10° NNE
CZ-2C R/B 4.5 04:52:16 10° SSE 04:56:55 60° ENE 05:01:39 10° N
Cosmos 614 Rocket 4.2 04:51:54 10° NNW 04:57:07 79° ENE 05:02:15 10° SSE
COSMOS 2487 2.5 04:54:32 10° NNW 04:58:11 82° WSW 05:01:48 10° SSE
Cosmos 1452 Rocket 3.7 04:53:20 11° SSW 04:58:18 63° WNW 05:03:34 10° NNE
USA 234 4.5 04:54:32 10° SSW 04:58:47 18° WSW 05:03:04 10° W
Okean O Rocket 2.7 04:57:19 10° NNE 05:01:28 42° E 05:05:35 10° S
MTI 3.8 04:59:53 10° S 05:03:12 68° W 05:06:30 10° NNW
Thor Agena Rocket 4.4 04:58:26 10° SE 05:03:28 54° ENE 05:08:28 10° N
Okean 1 Rocket 4.1 05:00:25 11° SW 05:04:18 32° WNW 05:08:19 10° N
Meteor 1-23 Rocket 4.3 05:02:52 10° NNW 05:08:39 78° W 05:14:17 10° S
CZ-2D R/B 2.2 05:03:47 10° N 05:09:13 75° WNW 05:14:40 10° SSW
Cosmos 1420 Rocket 4.1 05:06:07 10° SSW 05:11:26 90° WNW 05:16:46 10° NNE
Okean 2 3.3 05:11:34 10° NNW 05:15:41 79° W 05:19:46 10° S
Cosmos 2123 Rocket 4.4 05:10:01 10° NNW 05:16:00 46° W 05:21:58 10° SSW
Cosmos 1605 Rocket 4.1 05:09:58 10° SSW 05:16:04 63° WNW 05:22:18 10° N
CENTAUR R/B 3.3 05:10:05 10° NW 05:17:35 51° WSW 05:25:30 10° S
CZ-2D R/B 3.4 05:14:42 10° NNE 05:18:43 84° ESE 05:22:43 10° SSW
Cosmos 1315 Rocket 3.4 05:14:43 10° S 05:18:45 60° E 05:22:46 10° NNE
Cosmos 1844 Rocket 3.0 05:13:39 10° SW 05:19:15 59° WNW 05:24:53 10° NNE
Cosmos 1844 3.8 05:14:57 10° SSW 05:20:38 75° WNW 05:26:25 10° NNE
Cosmos 2263 Rocket 4.1 05:17:53 10° W 05:21:48 19° NW 05:25:43 10° N
